Temp
64 64 61 62 50 46 42 49 55 56 59 63 66 63 60 58 58 52 69 72 72 71 73 74 74 76 76 75 75 75 75 76 76 76 76 76 75 76 76 76 75 76 78 78 77 77 76 75 74
61 67 62 53 44 39 41 50 54 56 60 64 63 62 59 56 64 66 67 72 73 72 73 73 72 75 75 75 74 75 75 76 76 76 76 76 75 75 75 75 75 76 77 77 77 77 75 74 74
66 66 56 48 42 39 43 54 58 60 62 61 60 61 58 57 64 65 71 73 73 71 72 73 72 74 75 74 74 74 75 75 76 76 76 76 75 75 75 75 75 75 76 76 76 75 74 74 73
61 59 55 44 41 47 50 57 62 60 63 63 59 54 59 65 64 68 73 73 70 70 71 70 73 74 74 74 74 74 74 75 75 75 76 76 75 75 75 75 75 75 76 76 75 74 74 73 73
58 53 44 41 43 49 53 60 60 60 59 59 62 53 55 63 68 69 69 70 68 68 70 71 72 73 74 74 74 74 74 74 74 74 74 75 75 74 74 74 75 75 75 76 75 74 73 73 72
52 52 41 38 43 50 52 57 59 59 60 62 61 56 54 62 65 67 69 67 70 69 70 72 69 70 72 73 73 73 73 73 74 73 74 74 74 74 74 74 74 74 75 75 74 73 73 72 72
49 46 42 42 46 49 51 57 54 52 54 55 56 56 54 58 63 66 66 67 67 68 68 70 70 70 67 69 70 71 72 72 72 73 72 72 72 72 73 72 73 74 74 74 73 72 72 71 71
51 48 41 42 43 46 51 53 55 56 55 61 59 52 52 60 66 67 67 65 67 68 67 66 68 69 70 70 66 67 69 69 70 69 69 68 68 69 69 68 71 73 73 73 73 71 71 71 70
54 41 38 42 44 45 50 49 54 55 53 56 59 55 57 62 61 60 59 61 61 65 64 67 66 67 68 69 68 64 65 66 67 67 65 65 68 68 67 67 68 72 72 72 72 71 70 69 67
46 38 43 46 45 44 49 48 48 48 48 48 51 56 59 59 57 56 55 55 58 60 61 62 63 66 67 69 68 67 68 68 67 66 65 67 67 68 69 65 65 69 68 70 71 70 68 64 63
46 41 48 47 49 48 47 44 46 43 43 48 48 52 54 55 56 55 54 54 54 55 58 59 59 61 63 67 67 66 66 66 67 65 65 64 65 67 67 66 67 68 63 66 67 66 62 63 61
42 48 48 50 50 47 44 47 45 44 47 53 52 53 53 54 54 53 53 52 52 55 57 58 57 57 58 58 63 66 64 66 66 66 66 63 63 62 66 66 65 65 63 63 62 61 60 59 60
42 44 48 48 49 47 49 45 44 45 49 51 52 55 54 55 56 53 56 54 53 53 55 57 57 56 57 58 58 61 64 64 65 66 67 67 65 64 63 63 64 65 63 63 61 60 60 59 59
43 44 45 47 47 47 45 42 43 46 47 51 52 52 53 52 53 53 53 54 54 56 55 56 57 57 56 56 56 56 60 62 63 64 66 67 67 67 65 64 63 64 63 63 62 60 59 58 59
45 41 43 43 46 44 46 41 40 45 47 48 49 48 49 51 53 53 54 54 55 57 56 56 57 57 56 55 55 55 55 59 59 60 64 65 66 66 67 65 62 63 64 64 63 60 59 56 57
40 38 33 41 43 45 44 33 44 47 45 46 46 46 48 50 53 52 54 54 54 53 55 56 59 56 54 54 54 54 54 55 58 61 63 64 65 65 64 64 64 64 64 63 62 60 57 55 54
34 29 29 36 42 41 38 34 44 46 45 43 43 45 47 48 51 54 54 54 54 54 53 53 53 53 54 53 52 52 53 53 54 56 60 61 63 64 63 63 63 64 64 62 62 59 59 54 52
30 28 30 30 37 36 34 35 43 46 44 41 42 43 46 49 51 52 54 54 53 51 52 52 54 53 53 51 50 49 49 51 53 54 57 61 60 59 63 63 63 63 63 62 61 58 58 55 51
33 29 28 31 38 35 31 32 38 44 42 41 41 43 45 48 50 50 51 50 51 52 51 51 51 51 50 48 46 45 46 48 49 50 54 56 58 57 54 60 64 64 62 62 61 58 53 50 48
34 30 28 33 37 35 32 33 38 41 42 41 42 43 43 44 46 49 48 48 50 50 48 49 48 49 49 50 49 46 45 47 49 52 53 54 55 56 56 55 59 64 63 62 59 57 52 49 49
32 31 29 30 32 34 31 30 35 42 43 44 43 44 44 43 44 45 48 48 48 48 47 47 47 47 48 48 48 47 47 46 45 48 49 51 53 55 56 57 56 62 63 61 58 56 54 47 48
31 35 32 31 28 19 31 17 30 36 39 40 41 41 42 43 44 44 45 45 45 45 45 45 45 44 46 46 44 42 42 41 45 46 47 48 50 52 54 55 55 58 62 60 56 55 57 52 48
33 35 32 31 26 24 26 17 28 34 36 38 37 39 40 41 41 42 43 44 44 44 42 42 41 41 42 42 42 41 40 42 43 44 44 47 48 50 52 54 54 53 57 60 56 54 55 52 52
37 32 31 30 26 9 25 24 25 31 36 36 37 39 40 39 39 41 43 43 41 40 39 38 37 37 39 39 39 38 38 39 39 40 41 43 45 46 49 52 54 54 52 59 56 55 55 52 53
33 24 8 11 7 10 28 24 29 36 38 39 37 38 37 37 37 39 38 37 37 36 35 35 35 34 36 36 36 37 37 38 38 39 39 41 43 45 47 50 52 54 54 55 57 55 55 53 53
29 22 10 6 5 11 26 18 29 38 39 40 39 37 37 37 38 37 36 35 34 33 33 35 34 34 34 35 34 36 37 37 38 39 40 41 43 44 46 48 51 55 56 57 57 56 55 53 52
27 16 28 6 6 7 18 25 35 38 37 36 35 37 34 36 36 35 35 33 32 32 33 32 31 32 32 33 35 35 36 37 38 39 40 41 44 46 46 48 49 52 56 58 57 55 54 52 51
29 32 17 11 4 2 13 18 25 32 35 33 32 33 33 34 34 37 34 31 31 31 31 31 32 32 33 33 33 34 36 37 38 41 40 40 42 43 45 46 47 50 55 56 55 55 53 51 51
21 16 17 18 16 4 3 16 28 32 34 28 30 32 31 32 33 34 31 30 30 30 30 31 31 31 32 33 34 37 35 37 39 40 41 39 41 42 43 44 44 47 53 53 52 48 49 46 45
30 26 21 10 11 14 11 17 35 35 34 32 30 31 32 31 34 33 29 28 27 27 29 30 30 31 32 33 35 38 37 37 38 38 38 40 39 39 39 39 40 44 44 46 45 41 40 38 37
MSLP
1012.59 1012.22 1012.43 1012.66 1014.00 1014.09 1013.43 1012.56 1011.56 1010.51 1009.62 1008.87 1008.17 1008.35 1009.39 1009.84 1010.31 1010.59 1009.83 1009.72 1009.69 1009.99 1010.23 1010.72 1010.81 1011.09 1011.18 1011.41 1011.58 1011.82 1012.18 1012.34 1012.52 1012.49 1012.72 1013.03 1013.23 1013.62 1013.98 1014.30 1014.57 1014.58 1014.71 1014.94 1015.20 1015.37 1015.59 1015.85 1016.03
1012.72 1012.47 1012.64 1013.42 1014.33 1014.27 1013.52 1012.48 1011.75 1010.92 1010.36 1009.34 1008.87 1009.33 1009.65 1010.65 1010.62 1010.50 1010.02 1010.25 1009.89 1010.08 1010.31 1010.69 1010.79 1011.04 1011.17 1011.34 1011.74 1011.87 1012.02 1012.36 1012.41 1012.61 1012.60 1012.85 1013.11 1013.36 1013.81 1014.15 1014.49 1014.63 1014.82 1015.04 1015.38 1015.61 1015.96 1016.13 1016.24
1012.50 1012.67 1013.25 1014.06 1014.42 1014.17 1013.23 1012.15 1011.48 1010.76 1010.34 1009.90 1009.61 1009.95 1010.78 1011.46 1011.20 1011.27 1010.82 1010.05 1010.16 1010.27 1010.41 1010.64 1010.64 1011.20 1011.20 1011.26 1011.76 1011.99 1012.20 1012.34 1012.56 1012.50 1012.63 1012.72 1013.08 1013.35 1013.51 1013.93 1014.29 1014.65 1014.93 1015.22 1015.43 1015.86 1016.17 1016.37 1016.46
1012.89 1013.12 1014.05 1014.31 1014.45 1013.68 1012.90 1011.65 1011.14 1011.12 1010.36 1010.28 1010.21 1011.03 1011.61 1011.86 1011.69 1011.75 1011.25 1010.59 1010.48 1010.63 1010.48 1010.69 1010.55 1010.93 1011.21 1011.34 1011.63 1011.99 1012.11 1012.35 1012.49 1012.67 1012.70 1012.76 1013.00 1013.30 1013.54 1013.68 1014.23 1014.40 1014.66 1015.14 1015.58 1015.95 1016.28 1016.49 1016.64
1013.25 1013.86 1014.61 1014.72 1014.24 1013.40 1012.76 1011.84 1011.59 1011.34 1011.41 1010.98 1010.56 1011.48 1011.95 1012.00 1011.78 1011.44 1011.21 1010.98 1010.75 1010.73 1010.53 1010.62 1010.41 1010.86 1010.98 1011.25 1011.49 1011.89 1012.07 1012.20 1012.42 1012.66 1012.75 1012.78 1013.04 1013.26 1013.59 1013.68 1013.80 1014.35 1014.61 1015.01 1015.52 1016.02 1016.37 1016.55 1016.68
1013.89 1014.30 1014.94 1014.78 1013.98 1013.14 1012.65 1012.42 1012.14 1011.79 1011.52 1011.21 1011.26 1011.72 1012.10 1012.15 1011.90 1011.57 1011.23 1010.91 1010.71 1010.62 1010.47 1010.47 1010.57 1010.53 1010.92 1011.08 1011.41 1011.67 1011.98 1012.11 1012.23 1012.58 1012.77 1012.84 1012.97 1013.17 1013.53 1013.78 1013.88 1014.11 1014.50 1014.76 1015.29 1015.78 1016.23 1016.54 1016.73
1014.10 1014.65 1014.72 1014.33 1013.88 1013.39 1013.26 1012.87 1012.65 1012.37 1012.01 1011.74 1011.63 1011.92 1012.43 1012.18 1012.05 1011.71 1011.33 1011.08 1010.94 1010.76 1010.88 1010.60 1010.71 1010.75 1010.83 1010.94 1011.25 1011.52 1011.67 1012.05 1012.26 1012.39 1012.70 1012.80 1012.93 1013.19 1013.36 1013.69 1013.86 1013.99 1014.22 1014.78 1015.24 1015.53 1015.92 1016.33 1016.66
1014.03 1014.67 1014.75 1014.31 1014.14 1013.92 1013.78 1013.42 1013.09 1012.87 1012.49 1012.05 1011.71 1011.99 1012.35 1012.29 1012.08 1011.77 1011.52 1011.50 1011.29 1011.23 1011.17 1011.14 1010.94 1010.66 1010.78 1010.84 1011.14 1011.44 1011.51 1011.74 1012.05 1012.27 1012.47 1012.70 1012.92 1013.05 1013.33 1013.75 1013.87 1013.90 1014.16 1014.32 1015.11 1015.58 1015.87 1016.10 1016.43
1013.86 1014.87 1015.07 1014.48 1014.33 1014.31 1014.29 1014.18 1013.71 1013.53 1013.10 1012.82 1012.40 1012.43 1012.48 1012.41 1012.39 1012.29 1012.06 1011.87 1011.80 1011.64 1011.55 1011.37 1011.36 1011.14 1010.96 1010.57 1010.89 1011.12 1011.42 1011.55 1011.74 1011.93 1012.29 1012.54 1012.78 1012.92 1013.06 1013.47 1013.91 1013.83 1013.96 1014.35 1014.61 1015.08 1015.58 1016.08 1016.50
1014.27 1014.97 1014.66 1014.50 1014.42 1014.53 1014.42 1014.57 1014.62 1014.44 1014.05 1013.58 1013.21 1012.98 1012.77 1012.72 1012.60 1012.65 1012.61 1012.57 1012.37 1012.14 1011.90 1011.69 1011.65 1011.50 1011.21 1010.86 1010.81 1010.88 1010.84 1011.36 1011.54 1011.71 1011.89 1012.29 1012.42 1012.64 1012.79 1013.00 1013.48 1013.75 1013.88 1014.04 1014.57 1014.86 1015.43 1015.82 1016.55
1014.37 1014.61 1014.47 1014.56 1014.56 1014.70 1014.85 1014.96 1015.05 1014.95 1014.48 1013.74 1013.49 1013.21 1013.00 1013.00 1012.93 1012.84 1012.86 1012.73 1012.59 1012.50 1012.23 1012.18 1012.11 1011.80 1011.55 1011.21 1010.82 1010.58 1010.64 1010.76 1011.06 1011.18 1011.60 1011.86 1012.15 1012.37 1012.41 1012.72 1013.06 1013.44 1013.76 1014.10 1014.36 1014.84 1015.40 1015.93 1016.17
1014.47 1014.54 1014.60 1014.73 1014.77 1014.94 1015.19 1015.16 1015.31 1015.01 1014.37 1013.72 1013.57 1013.50 1013.25 1012.92 1012.83 1012.79 1012.64 1012.64 1012.61 1012.57 1012.46 1012.21 1012.18 1011.96 1011.81 1011.64 1011.22 1010.84 1010.55 1010.36 1010.44 1010.35 1010.56 1011.37 1011.76 1012.06 1012.11 1012.35 1012.53 1013.20 1013.51 1013.89 1014.30 1014.83 1015.23 1015.98 1016.14
1014.86 1014.89 1014.84 1014.82 1014.82 1014.95 1015.12 1015.22 1015.34 1014.73 1014.22 1013.89 1013.62 1013.48 1013.32 1012.98 1012.53 1012.53 1012.37 1012.47 1012.37 1012.43 1012.35 1012.14 1011.96 1011.78 1011.92 1011.83 1011.63 1011.32 1010.94 1010.57 1010.07 1010.00 1009.83 1009.85 1010.82 1011.21 1011.51 1011.94 1012.14 1012.60 1013.18 1013.58 1014.03 1014.54 1014.91 1015.40 1016.06
1015.40 1015.44 1015.40 1015.28 1015.18 1015.20 1015.23 1015.01 1015.20 1014.27 1013.96 1013.82 1013.80 1013.68 1013.42 1013.19 1012.82 1012.55 1012.38 1012.30 1012.09 1012.05 1012.02 1012.03 1011.91 1011.81 1011.84 1011.71 1011.57 1011.40 1011.07 1010.67 1010.53 1009.64 1009.02 1009.43 1009.51 1009.99 1010.73 1011.23 1011.78 1012.12 1012.52 1013.11 1013.75 1014.14 1014.82 1015.33 1015.33
1015.90 1016.04 1015.73 1015.74 1015.70 1015.57 1015.34 1014.64 1014.75 1014.07 1014.02 1013.80 1013.68 1013.45 1013.19 1013.01 1012.39 1012.32 1012.18 1012.05 1011.83 1011.86 1011.86 1012.01 1011.88 1011.92 1011.78 1011.58 1011.56 1011.36 1011.05 1010.85 1010.48 1010.11 1009.88 1008.60 1008.96 1009.36 1009.85 1010.59 1011.05 1011.42 1011.74 1012.60 1013.10 1014.01 1014.65 1015.30 1015.48
1016.65 1016.76 1017.06 1016.60 1016.57 1016.32 1016.49 1015.73 1014.15 1014.11 1014.20 1014.10 1013.50 1013.25 1012.77 1012.15 1012.28 1012.28 1012.10 1012.02 1012.00 1012.13 1012.21 1011.98 1011.86 1011.76 1011.62 1011.54 1011.35 1011.10 1010.84 1010.53 1010.27 1009.83 1009.28 1009.05 1008.23 1008.57 1009.01 1009.61 1010.42 1010.59 1011.21 1011.81 1012.44 1013.28 1014.25 1014.98 1015.46
1018.20 1018.40 1018.36 1017.79 1017.48 1017.47 1017.33 1016.23 1014.10 1014.37 1014.58 1014.29 1013.71 1013.24 1012.94 1012.20 1012.05 1011.84 1011.77 1011.78 1011.77 1011.90 1012.13 1012.01 1011.89 1011.85 1011.64 1011.41 1011.17 1010.85 1010.35 1010.07 1009.75 1009.56 1009.33 1008.93 1008.83 1007.64 1008.03 1008.43 1009.18 1009.83 1010.58 1011.18 1011.71 1012.67 1013.24 1014.49 1015.56
1019.15 1019.40 1019.40 1019.25 1018.45 1018.29 1017.85 1016.50 1015.00 1014.14 1014.22 1013.62 1013.51 1013.06 1012.78 1012.50 1012.07 1012.16 1012.08 1012.25 1012.21 1012.17 1011.92 1011.51 1011.19 1010.95 1010.83 1010.82 1010.73 1010.44 1010.07 1009.55 1009.14 1009.01 1008.90 1008.80 1008.47 1008.01 1006.98 1007.14 1007.84 1008.43 1009.36 1010.31 1010.99 1011.96 1012.89 1013.75 1014.78
1019.31 1019.70 1019.95 1019.30 1018.99 1018.76 1017.94 1017.40 1015.43 1013.81 1013.44 1013.12 1013.04 1012.99 1012.87 1012.87 1012.93 1012.77 1012.80 1012.75 1012.48 1012.17 1011.84 1011.44 1011.13 1010.79 1010.55 1010.42 1010.31 1010.05 1009.71 1009.15 1008.74 1008.43 1008.23 1008.06 1007.87 1007.97 1008.08 1007.68 1006.26 1006.77 1007.09 1008.64 1009.72 1011.03 1012.20 1013.94 1014.64
1019.32 1019.62 1019.68 1019.05 1019.01 1019.45 1018.19 1016.88 1015.22 1013.96 1013.12 1012.77 1012.80 1013.28 1013.50 1013.60 1013.48 1013.34 1013.11 1012.78 1012.47 1012.18 1011.80 1011.54 1011.20 1010.79 1010.56 1010.33 1010.00 1009.65 1009.24 1008.78 1008.36 1007.84 1007.42 1007.25 1007.35 1007.42 1007.20 1007.21 1006.65 1004.99 1005.33 1006.92 1007.85 1009.37 1011.40 1012.58 1013.77
1019.30 1019.52 1019.96 1020.41 1019.69 1019.07 1018.77 1016.68 1015.29 1013.93 1013.15 1013.02 1013.27 1013.57 1013.79 1013.92 1013.81 1013.52 1013.27 1013.04 1012.60 1012.16 1011.77 1011.51 1011.13 1010.77 1010.47 1010.25 1009.74 1009.22 1008.65 1008.14 1007.60 1007.19 1006.72 1006.57 1006.49 1006.35 1006.37 1006.27 1006.17 1004.78 1003.62 1004.68 1006.19 1007.51 1009.35 1011.19 1012.91
1019.37 1019.68 1020.32 1020.73 1021.02 1020.73 1019.52 1018.33 1015.83 1014.53 1013.66 1013.54 1013.67 1014.03 1014.22 1014.27 1014.07 1013.85 1013.37 1012.76 1012.53 1012.14 1011.92 1011.51 1010.99 1010.55 1010.04 1009.77 1009.32 1008.97 1008.31 1007.42 1006.91 1006.53 1006.22 1005.96 1005.81 1005.74 1005.84 1005.62 1005.37 1004.66 1002.38 1002.96 1004.36 1005.75 1007.17 1009.81 1011.15
1019.77 1020.13 1020.81 1021.25 1021.79 1021.66 1020.52 1019.62 1015.86 1014.98 1013.99 1013.90 1014.17 1014.47 1014.62 1014.43 1014.12 1013.70 1013.36 1012.98 1012.56 1012.19 1011.84 1011.44 1010.97 1010.49 1009.91 1009.40 1008.88 1008.24 1007.52 1006.93 1006.45 1006.13 1005.77 1005.28 1004.90 1004.71 1004.53 1004.37 1003.90 1003.95 1003.21 1001.57 1002.94 1004.57 1006.16 1007.57 1009.16
1020.19 1020.80 1021.68 1022.23 1023.00 1022.94 1021.37 1020.15 1016.58 1015.16 1013.81 1013.89 1014.33 1014.46 1014.33 1014.28 1013.93 1013.65 1013.35 1013.03 1012.45 1012.19 1011.83 1011.28 1010.69 1009.99 1009.43 1008.92 1008.37 1007.80 1007.08 1006.44 1005.82 1005.46 1005.02 1004.52 1004.09 1003.80 1003.78 1003.63 1002.96 1002.92 1002.69 1001.55 1001.47 1002.58 1004.21 1005.82 1007.01
1020.94 1021.99 1024.06 1024.80 1025.12 1024.07 1021.77 1020.50 1016.48 1014.48 1013.67 1013.75 1014.44 1014.65 1014.29 1014.07 1013.92 1013.52 1013.22 1012.86 1012.40 1012.03 1011.56 1011.02 1010.30 1009.38 1008.86 1008.21 1007.50 1006.84 1006.19 1005.51 1004.87 1004.57 1004.19 1003.88 1003.27 1002.82 1002.69 1002.73 1002.41 1001.88 1001.59 1002.16 1000.98 1001.30 1003.10 1004.46 1005.32
1021.98 1023.21 1025.48 1027.10 1027.97 1025.57 1022.36 1019.87 1015.55 1013.77 1013.34 1013.65 1014.11 1014.40 1013.98 1013.98 1013.76 1013.49 1013.20 1012.87 1012.42 1011.89 1011.26 1010.47 1009.81 1008.79 1008.03 1007.36 1006.51 1005.77 1005.00 1004.36 1003.75 1003.35 1003.10 1002.71 1002.33 1002.09 1002.06 1001.79 1001.45 1001.00 1000.53 1001.07 1001.58 1001.07 1001.76 1003.36 1004.56
1022.67 1023.83 1025.06 1027.24 1028.72 1027.47 1023.02 1019.02 1015.40 1013.37 1013.69 1013.78 1014.22 1013.80 1014.21 1013.98 1013.79 1013.51 1013.11 1012.94 1012.39 1011.70 1010.93 1010.26 1009.32 1008.27 1007.21 1006.29 1005.33 1004.43 1003.76 1003.19 1002.57 1002.17 1001.95 1001.63 1001.26 1001.04 1001.03 1000.91 1000.88 1000.71 999.80 999.56 1000.09 1000.88 1001.13 1002.30 1003.60
1022.67 1023.88 1025.57 1027.65 1028.90 1027.78 1023.55 1020.69 1016.76 1014.35 1014.00 1014.16 1014.32 1014.65 1014.40 1014.08 1013.74 1013.28 1013.12 1012.83 1012.36 1011.69 1010.74 1009.85 1008.86 1007.63 1006.47 1005.32 1004.18 1002.98 1002.22 1001.91 1001.62 1001.13 1000.81 1000.63 1000.34 1000.16 1000.02 999.95 999.91 999.90 999.03 998.83 999.29 999.70 1000.25 1001.40 1002.76
1023.26 1024.04 1025.75 1027.04 1028.14 1028.16 1026.09 1019.52 1015.04 1014.03 1014.01 1014.59 1014.99 1014.78 1014.47 1014.17 1013.66 1013.22 1013.14 1012.90 1012.27 1011.61 1010.60 1009.43 1008.24 1007.05 1005.78 1004.52 1003.08 1001.54 1001.08 1000.90 1000.57 1000.20 999.84 999.64 999.62 999.53 999.39 999.13 998.93 998.72 998.14 997.57 998.50 999.80 1000.53 1001.21 1002.62
1022.09 1023.06 1024.52 1026.42 1027.74 1027.41 1026.02 1019.39 1014.57 1013.99 1014.22 1014.68 1014.94 1014.86 1014.45 1014.21 1013.63 1013.54 1013.45 1012.95 1012.29 1011.51 1010.37 1009.17 1007.97 1006.78 1005.54 1004.08 1002.50 1000.96 1000.46 1000.13 999.84 999.50 999.24 998.96 998.92 998.89 998.88 998.60 998.15 997.76 997.02 997.20 997.79 999.34 1000.91 1001.68 1003.05
Wind_Speed
8 8 1 4 3 4 3 4 3 10 8 5 3 4 9 4 4 3 3 4 7 12 12 12 12 12 13 12 17 17 16 17 16 17 16 15 15 17 17 15 15 16 15 17 16 15 15 17 17
4 5 4 3 4 2 5 4 4 3 6 9 3 5 6 4 4 2 7 3 8 10 11 10 12 12 13 11 15 17 17 16 17 17 18 16 16 17 16 18 14 14 15 16 15 15 15 15 16
4 2 4 4 3 4 4 3 4 8 5 6 4 6 3 4 2 4 10 0 8 8 9 9 14 13 13 13 13 14 15 15 15 17 19 19 17 18 20 17 16 15 15 14 16 15 15 14 15
3 4 4 4 3 3 3 3 2 5 6 7 1 6 4 2 1 4 9 1 7 6 7 9 14 14 13 13 14 15 16 15 16 17 18 18 19 17 17 17 15 13 12 14 15 16 16 15 16
3 3 3 1 3 3 4 5 1 4 3 5 5 0 3 3 5 6 8 5 5 6 6 9 16 13 14 14 15 15 16 16 15 16 18 18 17 18 16 16 16 14 14 15 15 16 16 15 14
3 3 3 3 4 3 2 6 3 1 3 4 5 1 3 3 6 7 6 7 5 7 6 9 11 15 13 13 14 15 15 15 16 16 18 18 18 18 17 17 16 15 14 17 17 17 16 14 14
5 4 4 3 3 2 2 7 2 2 3 2 2 1 2 3 5 7 6 6 1 0 3 4 7 9 11 10 11 13 14 13 14 17 17 18 18 17 18 17 18 17 16 17 17 18 17 16 15
4 4 2 3 2 3 4 6 2 5 3 6 2 2 2 2 5 6 6 7 7 3 2 4 5 5 7 8 9 9 11 12 12 12 14 13 13 14 15 13 15 18 17 20 18 18 18 17 15
3 4 2 2 2 0 3 4 3 5 3 6 4 2 1 3 4 7 6 7 5 5 7 4 4 5 6 7 9 11 11 11 12 11 12 12 9 10 12 13 14 18 18 18 18 17 20 15 13
4 4 6 2 1 1 5 4 5 5 7 4 3 2 2 3 4 4 4 4 5 7 7 6 7 5 5 6 7 8 8 8 7 6 7 7 9 10 10 12 14 16 15 17 15 18 16 12 5
3 5 4 2 3 1 1 2 1 3 6 8 4 7 5 4 4 4 4 2 2 4 6 7 6 7 8 7 5 5 7 7 7 9 8 6 6 7 8 6 8 8 11 8 11 10 6 7 6
2 2 1 3 2 2 2 4 6 5 8 5 9 6 6 5 5 3 3 0 2 3 4 6 5 6 7 4 6 5 4 7 8 11 11 7 5 6 7 6 9 8 6 8 7 6 7 6 6
1 1 3 1 4 4 2 7 5 9 10 9 8 6 6 8 8 3 3 2 1 3 3 5 6 5 5 5 4 5 5 6 8 9 12 12 9 9 8 7 8 9 7 8 8 7 8 8 7
1 3 5 5 2 1 4 5 2 5 3 6 3 7 9 8 9 4 4 3 1 3 4 4 6 6 4 4 5 4 4 5 5 8 11 14 12 12 10 10 10 9 9 9 9 9 8 7 9
1 5 4 3 4 4 7 9 5 6 5 8 9 9 7 8 7 8 6 6 6 3 3 4 5 4 6 6 3 4 4 4 7 7 9 13 14 12 13 10 10 10 10 12 10 8 7 7 6
5 5 5 3 8 4 7 12 10 6 6 13 12 10 10 11 7 8 8 6 5 4 5 5 4 6 6 6 5 3 4 4 4 7 6 10 15 15 12 10 10 11 10 11 11 11 9 8 8
8 1 2 9 4 4 1 11 14 5 8 10 10 8 9 6 5 6 6 6 5 3 3 4 4 6 7 7 5 6 6 5 4 4 7 8 12 16 15 13 12 13 12 11 12 11 13 10 7
2 3 3 6 5 3 7 20 18 15 8 10 9 8 6 6 5 4 5 7 6 4 5 6 6 7 7 5 5 5 5 6 6 5 5 9 8 9 16 16 16 15 13 13 13 15 12 11 12
3 2 4 5 3 9 4 10 20 17 6 6 5 6 5 5 7 7 6 6 7 9 8 9 8 8 4 3 4 4 5 5 5 5 8 10 6 8 10 14 20 19 20 18 18 14 17 9 11
4 4 4 6 2 3 8 17 13 8 4 1 3 4 7 5 8 7 7 7 11 10 10 9 7 7 6 6 7 4 4 6 9 9 10 9 10 11 10 13 16 23 19 23 20 20 13 7 13
3 3 2 5 9 3 7 7 5 5 3 6 7 5 4 4 7 9 13 14 12 15 12 10 11 10 10 12 11 10 10 7 6 9 8 8 10 9 8 11 11 20 21 18 20 21 22 11 12
3 4 1 4 5 2 4 6 6 4 5 2 4 6 6 7 7 7 12 14 14 12 12 16 14 15 15 16 13 15 14 15 10 9 9 9 9 11 12 12 12 15 17 20 21 21 21 14 16
5 3 4 2 3 4 1 4 9 3 4 5 2 2 7 8 7 10 13 13 14 14 14 15 16 17 17 16 16 13 15 12 10 10 13 13 10 9 10 12 12 13 10 21 24 23 21 17 18
5 3 5 3 2 4 4 4 8 5 5 1 1 7 8 9 8 11 11 14 15 13 15 15 17 18 17 16 16 18 19 16 13 12 11 10 8 7 10 13 12 12 11 17 23 24 27 22 19
6 5 5 8 7 7 2 1 13 7 6 6 3 9 9 8 8 13 14 14 16 15 15 15 17 19 18 18 18 18 19 18 18 15 11 12 10 9 11 11 12 11 13 13 19 24 23 22 20
4 5 8 5 3 7 4 7 9 6 6 5 6 9 6 9 11 13 14 14 16 16 17 18 19 21 19 19 20 17 18 12 13 14 12 12 11 10 9 10 11 14 14 15 17 17 18 20 18
4 4 4 8 1 4 5 9 12 8 7 2 7 13 11 13 13 15 15 14 16 16 18 18 19 19 19 19 17 17 16 17 15 15 13 11 13 10 11 12 12 14 17 19 20 18 20 19 18
3 4 4 5 1 7 7 7 11 5 9 6 11 13 11 11 14 15 15 15 15 16 17 18 18 19 19 19 17 16 16 15 15 14 15 13 11 11 13 12 12 13 16 15 17 17 19 19 16
1 2 5 5 5 6 4 10 9 8 5 5 8 11 10 11 14 15 15 15 15 16 16 17 17 18 18 17 16 13 10 13 13 13 12 12 13 12 12 13 11 14 16 13 14 8 12 15 11
3 6 6 7 6 3 4 14 5 6 6 3 8 9 8 11 14 16 14 16 16 17 17 16 16 16 16 16 15 11 8 10 11 10 9 11 12 10 14 14 11 12 7 11 14 13 11 12 11
Wind_Direction
327 315 284 40 70 67 267 257 324 1 350 323 290 87 112 50 37 175 296 6 137 158 161 170 171 174 171 179 165 161 163 163 163 160 160 162 169 166 163 159 161 154 149 146 138 139 135 137 139
325 315 52 78 100 161 266 304 318 318 300 299 340 90 41 76 14 2 0 4 154 157 159 171 164 178 174 175 169 166 168 171 171 171 167 164 164 163 174 158 154 150 149 148 147 144 137 137 140
322 216 86 108 147 190 210 237 286 314 341 350 34 64 64 351 344 15 319 94 142 150 165 171 165 183 180 171 175 173 175 177 182 177 173 165 159 159 156 156 157 153 149 145 139 139 144 146 148
15 20 36 100 228 242 248 258 272 342 340 4 14 57 59 290 28 326 322 140 140 158 168 174 172 182 179 177 182 185 183 185 189 183 179 172 163 163 160 158 165 166 166 157 154 150 149 151 159
47 57 79 184 245 249 255 291 270 212 264 324 354 42 86 1 337 1 352 13 164 177 191 189 169 185 186 189 186 195 194 192 192 191 185 177 173 167 169 168 168 169 163 170 171 163 162 164 163
55 99 88 230 236 215 79 354 274 293 356 337 43 44 157 341 0 331 351 355 165 188 193 190 188 175 191 196 193 193 201 194 187 189 189 183 178 173 175 176 174 174 175 164 170 169 169 169 165
125 104 204 225 244 40 31 318 48 290 344 317 273 272 172 1 323 323 352 15 87 2 260 203 198 199 187 193 195 195 196 201 197 193 194 192 183 180 177 181 179 176 174 170 174 174 171 170 171
113 97 206 252 236 239 345 338 5 35 296 301 325 88 205 266 347 358 11 16 26 23 245 246 270 208 211 194 202 208 204 201 205 204 192 192 191 184 180 183 188 183 184 171 183 180 177 173 171
92 72 197 252 293 222 350 12 319 313 297 346 324 79 118 333 23 17 7 4 10 10 8 345 279 254 249 203 209 211 218 216 204 203 194 190 195 195 187 183 195 191 183 181 188 190 176 168 160
95 127 213 210 156 304 339 25 343 358 327 299 325 15 0 337 21 18 356 342 347 342 338 3 354 304 255 249 232 212 211 217 217 209 202 204 195 199 192 183 197 196 182 180 181 177 170 145 148
157 177 186 198 154 141 273 265 265 287 286 228 244 281 281 222 315 341 322 302 351 325 340 3 8 357 347 293 247 236 216 213 212 202 206 191 193 200 188 190 193 195 186 180 172 162 150 157 150
162 72 73 152 161 144 234 302 306 216 236 259 273 269 282 275 275 272 291 179 81 41 348 335 356 354 347 345 345 271 250 233 214 210 194 189 192 195 192 195 184 190 183 173 158 159 155 157 151
139 287 315 39 295 242 271 248 231 257 274 288 296 310 263 273 270 302 197 126 60 31 342 338 348 5 349 354 339 344 325 284 244 229 212 190 200 198 183 189 188 188 174 176 169 166 167 154 161
207 296 283 290 256 337 283 258 87 261 305 344 307 291 294 275 256 243 181 177 56 341 341 338 343 340 356 346 335 327 321 312 299 272 220 217 211 200 197 188 191 192 178 177 175 173 170 167 159
324 360 9 2 349 342 2 323 211 237 320 319 313 305 284 252 261 208 202 194 180 213 285 309 310 330 338 328 303 311 301 309 307 267 288 233 212 215 199 197 193 188 180 177 173 167 155 152 152
32 50 15 346 19 2 66 281 270 281 343 302 298 304 308 307 204 203 204 207 192 196 232 274 305 316 308 304 303 284 287 287 293 309 284 275 219 204 192 197 199 189 183 179 173 169 161 157 155
13 295 327 319 73 355 46 276 268 272 292 272 273 278 294 257 211 234 224 227 231 238 319 318 306 279 286 297 280 289 287 266 256 263 287 275 282 216 203 196 194 194 186 186 176 174 165 157 142
311 338 306 259 301 351 262 264 283 293 265 267 278 288 290 220 248 321 5 359 15 329 278 281 274 253 258 247 264 272 267 264 253 242 254 285 272 294 225 200 196 185 195 192 181 171 169 163 144
143 217 257 249 271 348 308 287 287 294 288 260 279 286 254 317 14 33 8 335 312 310 299 288 293 282 293 279 264 244 251 259 250 244 254 251 255 287 259 280 200 191 186 192 182 170 160 153 146
216 226 262 275 258 315 293 294 284 286 275 337 163 70 58 29 358 331 327 322 318 309 298 286 286 298 296 293 288 257 259 262 268 267 258 240 246 252 259 243 271 201 191 192 177 170 162 141 178
246 193 170 231 321 255 305 294 323 300 73 73 74 100 57 21 342 331 327 317 311 311 309 307 300 297 297 297 290 284 277 270 258 256 254 241 233 243 253 254 257 244 192 188 174 166 171 156 195
323 151 90 296 360 279 43 276 303 286 341 111 85 44 3 318 295 272 310 315 316 310 314 311 304 306 302 296 285 281 273 271 264 260 261 253 244 246 250 252 253 278 201 182 172 170 175 167 186
240 353 279 194 208 23 299 66 270 310 272 223 189 253 277 265 280 304 309 309 309 312 312 308 305 301 295 291 285 279 273 272 269 266 264 255 244 235 251 256 260 243 273 180 172 171 177 179 182
314 29 45 66 68 20 267 102 277 221 210 196 249 315 306 289 285 300 306 315 310 314 307 303 302 296 294 290 284 279 276 272 265 258 254 251 254 246 248 254 253 252 246 223 177 176 179 183 185
33 44 346 359 9 221 340 336 250 257 232 173 240 276 280 297 296 308 318 318 317 314 310 307 302 298 294 289 283 273 268 267 260 258 258 261 250 242 241 234 247 238 223 256 192 177 184 187 186
46 131 144 231 277 282 307 230 251 222 156 159 223 264 293 307 318 317 317 323 319 313 312 310 305 300 296 289 283 275 269 261 257 251 247 248 248 248 246 247 254 255 233 227 216 191 181 185 193
257 49 162 98 34 27 265 287 290 218 202 272 309 353 313 315 321 320 326 326 318 314 311 309 304 298 295 289 283 274 264 258 254 249 245 248 249 245 242 239 244 255 241 234 195 195 185 183 191
130 156 70 14 20 301 287 286 246 258 244 328 338 321 300 308 321 330 334 324 320 316 314 312 307 304 298 292 282 272 259 256 253 248 241 239 251 247 245 247 245 246 243 204 191 196 184 181 193
25 30 51 115 144 172 294 265 224 229 192 260 298 294 297 316 326 336 333 325 322 318 316 314 313 312 309 304 299 292 254 250 248 249 243 241 243 247 250 251 255 254 234 175 167 180 185 169 172
197 168 146 123 244 218 158 268 263 213 172 206 299 290 302 332 338 337 330 326 327 322 321 321 320 321 319 317 315 295 257 254 253 248 247 237 238 250 251 253 245 233 155 148 145 134 141 129 137